Date String (YYYY-MM-DD hh:mm:ss) UTC,Instrument flags,absolute air pressure of the measurement (hPa),sample flow rate (lpm),inlet stack bypass flow (lpm),air temperature of the measurement (°C),ambient temperature measured by the external sensor (°C),aerosol sample conditioner tube jacket temperature (°C),OPC LED temperature (°C),internal box temperature (°C),relative humidity of the measurement (%),span deviation,mass concentration of particles derived from Lorenz-Mie calculation of OPC scattering (μg/m³),mass concentration of particles derived from Lorenz-Mie calculation of OPC scattering (μg/m³),mass concentration of particles derived from Lorenz-Mie calculation of OPC scattering (μg/m³)
DateTimeUTC,F1_M11,P_M11,Q1_M11,Q2_M11,T1_M11,T2_M11,T3_M11,T4_M11,T5_M11,U1_M11,ZSPAN_M11,X0_M11,X2_M11,X1_M11
2023-06-06 09:00:00,SystemResetWarning,0832.4,5.00,000.00,029.6,027.8,000.0,038.1,031.0,24.4,0000.0,0007.61,0003.95,0003.54
2023-06-06 09:01:00,SystemResetWarning,0832.3,5.01,000.00,029.6,027.8,000.0,038.1,031.0,24.4,0000.0,0007.63,0003.94,0003.54
2023-06-06 09:02:00,SystemResetWarning,0832.4,4.98,000.00,029.6,027.8,000.0,038.1,031.0,24.4,0000.0,0008.02,0003.91,0003.53
2023-06-06 09:03:00,SystemResetWarning,0832.3,5.01,000.00,029.6,027.8,000.0,038.1,031.0,24.4,0000.0,0008.48,0003.91,0003.52
2023-06-06 09:04:00,SystemResetWarning,0832.3,5.00,000.00,029.6,027.8,000.0,038.1,030.9,24.5,0000.0,0008.34,0003.90,0003.51
2023-06-06 09:05:00,SystemResetWarning,0832.3,5.01,000.00,029.6,027.7,000.0,038.1,030.9,24.5,0000.0,0008.19,0003.89,0003.50
2023-06-06 09:06:00,SystemResetWarning,0832.3,5.00,000.00,029.5,027.7,000.0,038.1,030.9,24.4,0000.0,0008.25,0003.87,0003.50
2023-06-06 09:07:00,SystemResetWarning,0832.3,5.00,000.00,029.5,027.7,000.0,038.1,030.9,24.4,0000.0,0008.21,0003.85,0003.48
2023-06-06 09:08:00,SystemResetWarning,0832.3,5.02,000.00,029.5,027.7,000.0,038.1,030.9,24.4,0000.0,0008.21,0003.85,0003.48
2023-06-06 09:09:00,SystemResetWarning,0832.3,4.99,000.00,029.5,027.7,000.0,038.1,030.9,24.4,0000.0,0008.20,0003.85,0003.48
2023-06-06 09:10:00,SystemResetWarning,0832.3,5.00,000.00,029.5,027.7,000.0,038.1,030.9,24.4,0000.0,0008.14,0003.85,0003.49
2023-06-06 09:11:00,SystemResetWarning,0832.4,5.00,000.00,029.5,027.7,000.0,038.1,030.9,24.4,0000.0,0008.02,0003.85,0003.49
2023-06-06 09:12:00,SystemResetWarning,0832.4,4.98,000.00,029.5,027.7,000.0,038.1,030.9,24.5,0000.0,0008.00,0003.85,0003.50
2023-06-06 09:13:00,SystemResetWarning,0832.5,5.01,000.00,029.5,027.7,000.0,038.1,030.9,24.5,0000.0,0007.62,0003.88,0003.49
2023-06-06 09:14:00,SystemResetWarning,0832.5,5.00,000.00,029.5,027.7,000.0,038.1,030.9,24.6,0000.0,0006.96,0003.87,0003.48
2023-06-06 09:15:00,SystemResetWarning,0832.5,5.00,000.00,029.5,027.7,000.0,038.1,030.9,24.9,0000.0,0007.42,0003.88,0003.48
2023-06-06 09:16:00,SystemResetWarning,0832.5,5.01,000.00,029.5,027.7,000.0,038.1,030.9,25.0,0000.0,0007.99,0003.87,0003.48
2023-06-06 09:17:00,SystemResetWarning,0832.5,4.99,000.00,029.5,027.7,000.0,038.1,030.9,25.2,0000.0,0008.11,0003.88,0003.50
2023-06-06 09:18:00,SystemResetWarning,0832.5,5.00,000.00,029.5,027.6,000.0,038.1,030.8,25.5,0000.0,0008.21,0003.92,0003.53
2023-06-06 09:19:00,SystemResetWarning,0832.5,5.00,000.00,029.5,027.6,000.0,038.1,030.8,25.4,0000.0,0008.25,0003.95,0003.55
2023-06-06 09:20:00,SystemResetWarning,0832.5,5.00,000.00,029.4,027.6,000.0,038.0,030.8,25.4,0000.0,0008.24,0003.94,0003.57
2023-06-06 09:21:00,SystemResetWarning,0832.5,5.01,000.00,029.4,027.6,000.0,038.0,030.7,25.4,0000.0,0008.31,0003.97,0003.59
2023-06-06 09:22:00,SystemResetWarning,0832.4,5.00,000.00,029.4,027.5,000.0,038.0,030.8,25.3,0000.0,0008.42,0004.00,0003.60
2023-06-06 09:23:00,SystemResetWarning,0832.4,5.00,000.00,029.4,027.5,000.0,038.0,030.8,25.2,0000.0,0008.53,0004.03,0003.62
2023-06-06 09:24:00,SystemResetWarning,0832.4,5.00,000.00,029.4,027.5,000.0,038.0,030.8,25.1,0000.0,0008.48,0004.03,0003.63
2023-06-06 09:25:00,SystemResetWarning,0832.4,5.00,000.00,029.4,027.5,000.0,038.0,030.7,25.1,0000.0,0008.50,0004.05,0003.66
2023-06-06 09:26:00,SystemResetWarning,0832.3,5.00,000.00,029.4,027.5,000.0,038.0,030.8,25.1,0000.0,0008.24,0004.07,0003.68
2023-06-06 09:27:00,SystemResetWarning,0832.3,5.01,000.00,029.4,027.5,000.0,038.0,030.8,25.1,0000.0,0007.41,0004.09,0003.68
2023-06-06 09:28:00,SystemResetWarning,0832.3,5.01,000.00,029.4,027.5,000.0,038.0,030.8,25.1,0000.0,0007.14,0004.10,0003.68
2023-06-06 09:29:00,SystemResetWarning,0832.3,4.99,000.00,029.4,027.5,000.0,038.0,030.8,25.0,0000.0,0006.90,0004.07,0003.66
2023-06-06 09:30:00,SystemResetWarning,0832.3,5.00,000.00,029.4,027.6,000.0,038.0,030.8,24.9,0000.0,0006.68,0004.02,0003.64
2023-06-06 09:31:00,SystemResetWarning,0832.3,5.00,000.00,029.3,027.5,000.0,038.0,030.7,24.9,0000.0,0006.75,0004.03,0003.63
2023-06-06 09:32:00,SystemResetWarning,0832.3,5.00,000.00,029.3,027.5,000.0,037.9,030.7,24.9,0000.0,0006.72,0004.03,0003.62
2023-06-06 09:33:00,SystemResetWarning,0832.3,4.99,000.00,029.3,027.5,000.0,037.9,030.7,24.9,0000.0,0007.20,0004.03,0003.61
2023-06-06 09:34:00,SystemResetWarning,0832.3,5.03,000.00,029.3,027.5,000.0,037.9,030.7,24.8,0000.0,0007.38,0004.01,0003.61
2023-06-06 09:35:00,SystemResetWarning,0832.3,4.99,000.00,029.3,027.5,000.0,037.9,030.7,24.8,0000.0,0007.91,0003.99,0003.60
2023-06-06 09:36:00,SystemResetWarning,0832.3,5.00,000.00,029.3,027.5,000.0,037.9,030.7,24.7,0000.0,0007.94,0003.97,0003.58
2023-06-06 09:37:00,SystemResetWarning,0832.3,4.97,000.00,029.3,027.5,000.0,037.9,030.7,24.7,0000.0,0008.22,0003.94,0003.58
2023-06-06 09:38:00,SystemResetWarning,0832.3,5.04,000.00,029.3,027.5,000.0,037.9,030.7,24.8,0000.0,0008.32,0003.94,0003.57
2023-06-06 09:39:00,SystemResetWarning,0832.3,4.97,000.00,029.3,027.5,000.0,037.9,030.7,24.9,0000.0,0008.26,0003.90,0003.55
2023-06-06 09:40:00,SystemResetWarning,0832.3,5.02,000.00,029.3,027.5,000.0,037.9,030.7,25.0,0000.0,0008.29,0003.92,0003.55
2023-06-06 09:41:00,SystemResetWarning,0832.3,4.98,000.00,029.3,027.5,000.0,037.9,030.7,25.0,0000.0,0008.33,0003.94,0003.56
2023-06-06 09:42:00,SystemResetWarning,0832.4,5.00,000.00,029.3,027.4,000.0,037.9,030.6,24.9,0000.0,0008.29,0003.92,0003.55
2023-06-06 09:43:00,SystemResetWarning,0832.4,5.01,000.00,029.3,027.4,000.0,037.9,030.7,24.9,0000.0,0008.29,0003.92,0003.55
2023-06-06 09:44:00,SystemResetWarning,0832.4,5.00,000.00,029.3,027.5,000.0,037.9,030.7,25.0,0000.0,0007.91,0003.92,0003.56
2023-06-06 09:45:00,SystemResetWarning,0832.4,4.98,000.00,029.3,027.5,000.0,037.9,030.7,25.0,0000.0,0007.74,0003.92,0003.56
2023-06-06 09:46:00,SystemResetWarning,0832.4,4.99,000.00,029.3,027.5,000.0,037.9,030.7,25.1,0000.0,0007.36,0003.94,0003.56
2023-06-06 09:47:00,SystemResetWarning,0832.4,4.99,000.00,029.3,027.5,000.0,037.9,030.7,25.3,0000.0,0007.18,0003.97,0003.58
2023-06-06 09:48:00,SystemResetWarning,0832.3,5.00,000.00,029.3,027.5,000.0,037.9,030.7,25.4,0000.0,0007.02,0004.00,0003.60
2023-06-06 09:49:00,SystemResetWarning,0832.3,5.01,000.00,029.3,027.5,000.0,037.9,030.7,25.3,0000.0,0006.94,0004.03,0003.62
2023-06-06 09:50:00,SystemResetWarning,0832.3,5.01,000.00,029.3,027.5,000.0,037.8,030.7,25.3,0000.0,0007.03,0004.05,0003.63
2023-06-06 09:51:00,SystemResetWarning,0832.2,5.00,000.00,029.3,027.5,000.0,037.8,030.7,25.3,0000.0,0007.26,0004.08,0003.64
2023-06-06 09:52:00,SystemResetWarning,0832.3,5.00,000.00,029.3,027.5,000.0,037.8,030.7,25.4,0000.0,0007.97,0004.12,0003.66
2023-06-06 09:53:00,SystemResetWarning,0832.3,5.00,000.00,029.3,027.5,000.0,037.8,030.7,25.4,0000.0,0008.62,0004.14,0003.68
2023-06-06 09:54:00,SystemResetWarning,0832.3,5.00,000.00,029.3,027.5,000.0,037.8,030.7,25.4,0000.0,0008.55,0004.13,0003.70
2023-06-06 09:55:00,SystemResetWarning,0832.3,5.00,000.00,029.3,027.5,000.0,037.9,030.7,25.4,0000.0,0008.56,0004.14,0003.71
2023-06-06 09:56:00,SystemResetWarning,0832.3,5.00,000.00,029.3,027.5,000.0,037.9,030.7,25.4,0000.0,0008.70,0004.20,0003.72
2023-06-06 09:57:00,SystemResetWarning,0832.4,5.01,000.00,029.3,027.6,000.0,037.9,030.7,25.4,0000.0,0008.89,0004.25,0003.72
2023-06-06 09:58:00,SystemResetWarning,0832.3,5.01,000.00,029.3,027.6,000.0,037.9,030.7,25.5,0000.0,0008.93,0004.27,0003.72
2023-06-06 09:59:00,SystemResetWarning,0832.3,4.98,000.00,029.3,027.5,000.0,037.9,030.7,25.8,0000.0,0008.99,0004.30,0003.73
